Year,Month,Day,Hour,Minute,Value (Times are PST for windspeed in km/hr)
2011,06,10,00,00,0.10
2011,06,10,00,01,0.00
2011,06,10,00,02,0.00
2011,06,10,00,03,0.00
2011,06,10,00,04,0.00
2011,06,10,00,05,0.00
2011,06,10,00,06,0.00
2011,06,10,00,07,0.00
2011,06,10,00,08,0.00
2011,06,10,00,09,0.00
2011,06,10,00,10,0.00
2011,06,10,00,11,0.00
2011,06,10,00,12,0.00
2011,06,10,00,13,0.00
2011,06,10,00,14,0.00
2011,06,10,00,15,0.00
2011,06,10,00,16,0.00
2011,06,10,00,17,0.00
2011,06,10,00,18,0.00
2011,06,10,00,19,0.00
2011,06,10,00,20,0.00
2011,06,10,00,21,0.00
2011,06,10,00,22,0.00
2011,06,10,00,23,0.00
2011,06,10,00,24,0.00
2011,06,10,00,25,0.00
2011,06,10,00,26,0.00
2011,06,10,00,27,0.00
2011,06,10,00,28,0.00
2011,06,10,00,29,0.00
2011,06,10,00,30,0.00
2011,06,10,00,31,0.00
2011,06,10,00,32,0.00
2011,06,10,00,33,0.00
2011,06,10,00,34,0.00
2011,06,10,00,35,0.00
2011,06,10,00,36,0.00
2011,06,10,00,37,0.00
2011,06,10,00,38,0.00
2011,06,10,00,39,0.00
2011,06,10,00,40,0.00
2011,06,10,00,41,0.00
2011,06,10,00,42,0.60
2011,06,10,00,43,0.00
2011,06,10,00,44,0.10
2011,06,10,00,45,0.20
2011,06,10,00,46,0.00
2011,06,10,00,47,0.00
2011,06,10,00,48,0.20
2011,06,10,00,49,0.60
2011,06,10,00,50,0.30
2011,06,10,00,51,0.40
2011,06,10,00,52,0.00
2011,06,10,00,53,0.10
2011,06,10,00,54,0.20
2011,06,10,00,55,0.80
2011,06,10,00,56,0.20
2011,06,10,00,57,1.20
2011,06,10,00,58,0.60
2011,06,10,00,59,0.10
2011,06,10,01,00,0.10
2011,06,10,01,01,1.00
2011,06,10,01,02,0.80
2011,06,10,01,03,0.70
2011,06,10,01,04,1.50
2011,06,10,01,05,0.90
2011,06,10,01,06,0.20
2011,06,10,01,07,0.30
2011,06,10,01,08,0.50
2011,06,10,01,09,1.50
2011,06,10,01,10,0.50
2011,06,10,01,11,0.20
2011,06,10,01,12,0.20
2011,06,10,01,13,0.10
2011,06,10,01,14,2.20
2011,06,10,01,15,0.80
2011,06,10,01,16,0.40
2011,06,10,01,17,1.80
2011,06,10,01,18,2.50
2011,06,10,01,19,0.10
2011,06,10,01,20,0.10
2011,06,10,01,21,1.00
2011,06,10,01,22,0.00
2011,06,10,01,23,0.10
2011,06,10,01,24,0.10
2011,06,10,01,25,0.20
2011,06,10,01,26,0.00
2011,06,10,01,27,0.00
2011,06,10,01,28,0.20
2011,06,10,01,29,0.10
2011,06,10,01,30,0.40
2011,06,10,01,31,1.20
2011,06,10,01,32,2.10
2011,06,10,01,33,2.30
2011,06,10,01,34,2.80
2011,06,10,01,35,0.40
2011,06,10,01,36,2.80
2011,06,10,01,37,0.40
2011,06,10,01,38,1.60
2011,06,10,01,39,0.20
2011,06,10,01,40,1.50
2011,06,10,01,41,2.60
2011,06,10,01,42,0.80
2011,06,10,01,43,0.60
2011,06,10,01,44,1.40
2011,06,10,01,45,1.00
2011,06,10,01,46,0.00
2011,06,10,01,47,0.00
2011,06,10,01,48,0.00
2011,06,10,01,49,0.00
2011,06,10,01,50,0.50
2011,06,10,01,51,0.40
2011,06,10,01,52,0.40
2011,06,10,01,53,0.20
2011,06,10,01,54,2.10
2011,06,10,01,55,0.00
2011,06,10,01,56,1.00
2011,06,10,01,57,3.40
2011,06,10,01,58,1.10
2011,06,10,01,59,0.60
2011,06,10,02,00,1.90
2011,06,10,02,01,0.70
2011,06,10,02,02,3.20
2011,06,10,02,03,2.30
2011,06,10,02,04,0.80
2011,06,10,02,05,1.00
2011,06,10,02,06,2.20
2011,06,10,02,07,0.80
2011,06,10,02,08,1.30
2011,06,10,02,09,0.70
2011,06,10,02,10,1.90
2011,06,10,02,11,2.70
2011,06,10,02,12,2.00
2011,06,10,02,13,0.10
2011,06,10,02,14,1.40
2011,06,10,02,15,2.50
2011,06,10,02,16,1.60
2011,06,10,02,17,1.60
2011,06,10,02,18,0.20
2011,06,10,02,19,2.00
2011,06,10,02,20,1.20
2011,06,10,02,21,1.50
2011,06,10,02,22,2.20
2011,06,10,02,23,0.20
2011,06,10,02,24,0.60
2011,06,10,02,25,1.80
2011,06,10,02,26,1.00
2011,06,10,02,27,0.80
2011,06,10,02,28,1.70
2011,06,10,02,29,0.20
2011,06,10,02,30,1.50
2011,06,10,02,31,1.30
2011,06,10,02,32,1.70
2011,06,10,02,33,2.70
2011,06,10,02,34,1.20
2011,06,10,02,35,0.60
2011,06,10,02,36,0.60
2011,06,10,02,37,0.40
2011,06,10,02,38,2.20
2011,06,10,02,39,2.40
2011,06,10,02,40,1.30
2011,06,10,02,41,0.70
2011,06,10,02,42,0.30
2011,06,10,02,43,0.50
2011,06,10,02,44,0.80
2011,06,10,02,45,0.80
2011,06,10,02,46,1.50
2011,06,10,02,47,1.80
2011,06,10,02,48,1.60
2011,06,10,02,49,1.00
2011,06,10,02,50,1.60
2011,06,10,02,51,0.60
2011,06,10,02,52,0.10
2011,06,10,02,53,0.50
2011,06,10,02,54,0.50
2011,06,10,02,55,0.00
2011,06,10,02,56,1.50
2011,06,10,02,57,0.60
2011,06,10,02,58,0.10
2011,06,10,02,59,1.50
2011,06,10,03,00,0.20
2011,06,10,03,01,1.10
2011,06,10,03,02,0.90
2011,06,10,03,03,1.30
2011,06,10,03,04,0.10
2011,06,10,03,05,0.10
2011,06,10,03,06,0.30
2011,06,10,03,07,1.50
2011,06,10,03,08,0.30
2011,06,10,03,09,0.30
2011,06,10,03,10,1.00
2011,06,10,03,11,0.10
2011,06,10,03,12,0.50
2011,06,10,03,13,1.70
2011,06,10,03,14,0.40
2011,06,10,03,15,2.40
2011,06,10,03,16,1.00
2011,06,10,03,17,0.70
2011,06,10,03,18,0.10
2011,06,10,03,19,1.10
2011,06,10,03,20,0.30
2011,06,10,03,21,0.60
2011,06,10,03,22,0.60
2011,06,10,03,23,0.00
2011,06,10,03,24,0.00
2011,06,10,03,25,1.10
2011,06,10,03,26,0.20
2011,06,10,03,27,0.00
2011,06,10,03,28,0.20
2011,06,10,03,29,0.10
2011,06,10,03,30,0.00
2011,06,10,03,31,2.10
2011,06,10,03,32,1.00
2011,06,10,03,33,0.90
2011,06,10,03,34,0.20
2011,06,10,03,35,1.00
2011,06,10,03,36,0.10
2011,06,10,03,37,0.90
2011,06,10,03,38,0.20
2011,06,10,03,39,0.10
2011,06,10,03,40,0.50
2011,06,10,03,41,0.20
2011,06,10,03,42,0.10
2011,06,10,03,43,0.50
2011,06,10,03,44,0.20
2011,06,10,03,49,1.00
2011,06,10,03,50,1.50
2011,06,10,03,51,1.40
2011,06,10,03,52,2.10
2011,06,10,03,53,0.40
2011,06,10,03,54,1.40
2011,06,10,03,55,1.00
2011,06,10,03,56,0.10
2011,06,10,03,57,2.40
2011,06,10,03,58,1.00
2011,06,10,03,59,1.40
2011,06,10,04,00,0.30
2011,06,10,04,01,1.00
2011,06,10,04,02,0.20
2011,06,10,04,03,0.00
2011,06,10,04,04,1.90
2011,06,10,04,05,2.20
2011,06,10,04,06,2.80
2011,06,10,04,07,1.20
2011,06,10,04,08,1.10
2011,06,10,04,09,2.00
2011,06,10,04,10,1.00
2011,06,10,04,11,2.90
2011,06,10,04,12,2.70
2011,06,10,04,13,2.60
2011,06,10,04,14,2.10
2011,06,10,04,15,0.80
2011,06,10,04,16,1.90
2011,06,10,04,17,1.70
2011,06,10,04,18,0.10
2011,06,10,04,19,0.00
2011,06,10,04,20,0.30
2011,06,10,04,21,1.10
2011,06,10,04,22,0.10
2011,06,10,04,23,0.20
2011,06,10,04,24,0.60
2011,06,10,04,25,3.80
2011,06,10,04,26,1.90
2011,06,10,04,27,2.20
2011,06,10,04,28,0.60
2011,06,10,04,29,3.30
2011,06,10,04,30,1.00
2011,06,10,04,31,1.90
2011,06,10,04,32,1.50
2011,06,10,04,33,1.40
2011,06,10,04,34,1.30
2011,06,10,04,35,0.90
2011,06,10,04,36,2.20
2011,06,10,04,37,2.00
2011,06,10,04,38,1.80
2011,06,10,04,39,2.60
2011,06,10,04,40,0.90
2011,06,10,04,41,2.50
2011,06,10,04,42,0.60
2011,06,10,04,43,1.00
2011,06,10,04,44,0.60
2011,06,10,04,45,0.50
2011,06,10,04,46,0.00
2011,06,10,04,47,0.00
2011,06,10,04,48,1.00
2011,06,10,04,49,0.10
2011,06,10,04,50,0.10
2011,06,10,04,51,0.00
2011,06,10,04,52,1.70
2011,06,10,04,53,0.20
2011,06,10,04,54,2.40
2011,06,10,04,55,1.60
2011,06,10,04,56,1.70
2011,06,10,04,57,0.10
2011,06,10,04,58,0.40
2011,06,10,04,59,1.30
2011,06,10,05,00,0.30
2011,06,10,05,01,0.50
2011,06,10,05,02,0.70
2011,06,10,05,03,0.60
2011,06,10,05,04,1.00
2011,06,10,05,05,0.10
2011,06,10,05,06,1.40
2011,06,10,05,07,1.90
2011,06,10,05,08,0.20
2011,06,10,05,09,1.00
2011,06,10,05,10,0.40
2011,06,10,05,11,0.30
2011,06,10,05,12,1.90
2011,06,10,05,13,0.50
2011,06,10,05,14,0.90
2011,06,10,05,15,0.30
2011,06,10,05,16,0.10
2011,06,10,05,17,1.80
2011,06,10,05,18,0.40
2011,06,10,05,19,1.00
2011,06,10,05,20,1.50
2011,06,10,05,21,0.30
2011,06,10,05,22,1.80
2011,06,10,05,23,1.00
2011,06,10,05,24,1.50
2011,06,10,05,25,0.60
2011,06,10,05,26,2.00
2011,06,10,05,27,2.00
2011,06,10,05,28,1.90
2011,06,10,05,29,1.00
2011,06,10,05,30,1.70
2011,06,10,05,31,0.60
2011,06,10,05,32,0.00
2011,06,10,05,33,0.20
2011,06,10,05,34,0.60
2011,06,10,05,35,0.10
2011,06,10,05,36,0.20
2011,06,10,05,37,0.80
2011,06,10,05,38,1.40
2011,06,10,05,39,1.10
2011,06,10,05,40,2.50
2011,06,10,05,41,2.30
2011,06,10,05,42,1.50
2011,06,10,05,43,1.40
2011,06,10,05,44,2.70
2011,06,10,05,45,1.10
2011,06,10,05,46,1.00
2011,06,10,05,47,0.10
2011,06,10,05,48,2.80
2011,06,10,05,49,0.20
2011,06,10,05,50,0.50
2011,06,10,05,51,0.70
2011,06,10,05,52,1.20
2011,06,10,05,53,3.30
2011,06,10,05,54,0.30
2011,06,10,05,55,4.00
2011,06,10,05,56,3.20
2011,06,10,05,57,0.60
2011,06,10,05,58,2.40
2011,06,10,05,59,0.20
2011,06,10,06,00,2.40
2011,06,10,06,01,0.40
2011,06,10,06,02,1.00
2011,06,10,06,03,0.20
2011,06,10,06,04,0.60
2011,06,10,06,05,1.30
2011,06,10,06,06,0.80
2011,06,10,06,07,0.00
2011,06,10,06,08,0.50
2011,06,10,06,09,0.00
2011,06,10,06,10,0.20
2011,06,10,06,11,0.00
2011,06,10,06,12,0.00
2011,06,10,06,13,0.20
2011,06,10,06,14,0.00
2011,06,10,06,15,0.60
2011,06,10,06,16,0.30
2011,06,10,06,17,1.70
2011,06,10,06,18,1.60
2011,06,10,06,19,0.40
2011,06,10,06,20,1.80
2011,06,10,06,21,0.50
2011,06,10,06,22,1.10
2011,06,10,06,23,0.70
2011,06,10,06,24,1.70
2011,06,10,06,25,0.70
2011,06,10,06,26,0.40
2011,06,10,06,27,0.40
2011,06,10,06,28,0.00
2011,06,10,06,29,0.00
2011,06,10,06,30,0.00
2011,06,10,06,31,1.00
2011,06,10,06,32,0.20
2011,06,10,06,33,0.90
2011,06,10,06,34,0.50
2011,06,10,06,35,0.60
2011,06,10,06,36,0.20
2011,06,10,06,37,0.10
2011,06,10,06,38,0.20
2011,06,10,06,39,0.10
2011,06,10,06,40,2.60
2011,06,10,06,41,0.20
2011,06,10,06,42,0.20
2011,06,10,06,43,0.70
2011,06,10,06,44,0.20
2011,06,10,06,45,0.20
2011,06,10,06,46,1.00
2011,06,10,06,47,0.50
2011,06,10,06,48,0.60
2011,06,10,06,49,1.40
2011,06,10,06,50,4.20
2011,06,10,06,51,2.00
2011,06,10,06,52,3.50
2011,06,10,06,53,1.10
2011,06,10,06,54,0.60
2011,06,10,06,55,0.60
2011,06,10,06,56,0.20
2011,06,10,06,57,0.30
2011,06,10,06,58,0.10
2011,06,10,06,59,0.00
2011,06,10,07,00,0.70
2011,06,10,07,01,0.60
2011,06,10,07,02,1.30
2011,06,10,07,03,1.20
2011,06,10,07,04,1.50
2011,06,10,07,05,0.00
2011,06,10,07,06,0.10
2011,06,10,07,07,1.10
2011,06,10,07,08,2.00
2011,06,10,07,09,1.40
2011,06,10,07,10,0.10
2011,06,10,07,11,1.80
2011,06,10,07,12,2.70
2011,06,10,07,13,1.80
2011,06,10,07,14,0.20
2011,06,10,07,15,2.40
2011,06,10,07,16,3.30
2011,06,10,07,17,0.70
2011,06,10,07,18,1.70
2011,06,10,07,19,3.90
2011,06,10,07,20,3.10
2011,06,10,07,21,0.10
2011,06,10,07,22,2.20
2011,06,10,07,23,4.50
2011,06,10,07,24,3.30
2011,06,10,07,25,1.70
2011,06,10,07,26,1.90
2011,06,10,07,27,1.00
2011,06,10,07,28,5.80
2011,06,10,07,29,4.30
2011,06,10,07,30,0.10
2011,06,10,07,31,1.20
2011,06,10,07,32,1.00
2011,06,10,07,33,0.70
2011,06,10,07,34,0.70
2011,06,10,07,35,0.80
2011,06,10,07,36,0.60
2011,06,10,07,37,5.60
2011,06,10,07,38,9.30
2011,06,10,07,39,2.40
2011,06,10,07,40,0.10
2011,06,10,07,41,0.00
2011,06,10,07,42,0.70
2011,06,10,07,43,5.60
2011,06,10,07,44,4.40
2011,06,10,07,45,3.10
2011,06,10,07,46,2.50
2011,06,10,07,47,1.80
2011,06,10,07,48,0.20
2011,06,10,07,49,1.00
2011,06,10,07,50,2.40
2011,06,10,07,51,0.90
2011,06,10,07,52,2.60
2011,06,10,07,53,1.60
2011,06,10,07,54,0.10
2011,06,10,07,55,0.20
2011,06,10,07,56,1.00
2011,06,10,07,57,2.30
2011,06,10,07,58,3.50
2011,06,10,07,59,0.20
2011,06,10,08,00,0.10
2011,06,10,08,01,0.00
2011,06,10,08,02,1.10
2011,06,10,08,03,0.60
2011,06,10,08,04,0.60
2011,06,10,08,05,1.80
2011,06,10,08,06,2.00
2011,06,10,08,07,0.40
2011,06,10,08,08,0.60
2011,06,10,08,09,0.20
2011,06,10,08,10,0.00
2011,06,10,08,11,0.00
2011,06,10,08,12,1.00
2011,06,10,08,13,1.00
2011,06,10,08,14,0.60
2011,06,10,08,15,0.50
2011,06,10,08,16,0.60
2011,06,10,08,17,1.20
2011,06,10,08,18,1.50
2011,06,10,08,19,1.40
2011,06,10,08,20,0.90
2011,06,10,08,21,3.30
2011,06,10,08,22,1.80
2011,06,10,08,23,0.40
2011,06,10,08,24,1.90
2011,06,10,08,25,1.00
2011,06,10,08,26,0.10
2011,06,10,08,27,0.60
2011,06,10,08,28,1.20
2011,06,10,08,29,2.10
2011,06,10,08,30,2.70
2011,06,10,08,31,1.90
2011,06,10,08,32,3.80
2011,06,10,08,33,4.30
2011,06,10,08,34,0.20
2011,06,10,08,35,0.50
2011,06,10,08,36,1.30
2011,06,10,08,37,0.60
2011,06,10,08,38,0.30
2011,06,10,08,39,1.50
2011,06,10,08,40,5.90
2011,06,10,08,41,4.10
2011,06,10,08,42,2.30
2011,06,10,08,43,0.60
2011,06,10,08,44,2.20
2011,06,10,08,45,6.40
2011,06,10,08,46,3.10
2011,06,10,08,47,2.50
2011,06,10,08,48,1.70
2011,06,10,08,49,3.50
2011,06,10,08,50,5.30
2011,06,10,08,51,0.50
2011,06,10,08,52,0.20
2011,06,10,08,53,1.00
2011,06,10,08,54,0.40
2011,06,10,08,55,1.90
2011,06,10,08,56,5.50
2011,06,10,08,57,1.80
2011,06,10,08,58,2.70
2011,06,10,08,59,4.30
2011,06,10,09,00,2.20
2011,06,10,09,01,2.00
2011,06,10,09,02,2.40
2011,06,10,09,03,1.00
2011,06,10,09,04,2.40
2011,06,10,09,05,2.50
2011,06,10,09,06,0.70
2011,06,10,09,07,2.90
2011,06,10,09,08,3.90
2011,06,10,09,09,1.00
2011,06,10,09,10,1.50
2011,06,10,09,11,2.50
2011,06,10,09,12,0.40
2011,06,10,09,13,2.70
2011,06,10,09,14,4.10
2011,06,10,09,15,2.70
2011,06,10,09,16,2.30
2011,06,10,09,17,0.00
2011,06,10,09,18,0.20
2011,06,10,09,19,1.10
2011,06,10,09,20,1.20
2011,06,10,09,21,0.60
2011,06,10,09,22,1.70
2011,06,10,09,23,0.90
2011,06,10,09,24,0.20
2011,06,10,09,25,1.80
2011,06,10,09,26,1.80
2011,06,10,09,27,2.50
2011,06,10,09,28,3.10
2011,06,10,09,29,1.50
2011,06,10,09,30,2.30
2011,06,10,09,31,1.60
2011,06,10,09,32,4.20
2011,06,10,09,33,0.80
2011,06,10,09,34,0.20
2011,06,10,09,35,0.20
2011,06,10,09,36,1.60
2011,06,10,09,37,1.20
2011,06,10,09,38,0.40
2011,06,10,09,39,0.90
2011,06,10,09,40,0.30
2011,06,10,09,41,0.20
2011,06,10,09,42,0.70
2011,06,10,09,43,0.70
2011,06,10,09,44,0.80
2011,06,10,09,45,5.40
2011,06,10,09,46,3.90
2011,06,10,09,47,1.10
2011,06,10,09,48,0.40
2011,06,10,09,49,3.80
2011,06,10,09,50,2.50
2011,06,10,09,51,0.20
2011,06,10,09,52,0.60
2011,06,10,09,53,0.00
2011,06,10,09,54,0.70
2011,06,10,09,55,1.50
2011,06,10,09,56,0.70
2011,06,10,09,57,0.20
2011,06,10,09,58,1.70
2011,06,10,09,59,0.20
2011,06,10,10,00,0.90
2011,06,10,10,01,0.10
2011,06,10,10,02,0.60
2011,06,10,10,03,0.60
2011,06,10,10,04,2.90
2011,06,10,10,05,3.60
2011,06,10,10,06,5.00
2011,06,10,10,07,1.60
2011,06,10,10,08,1.20
2011,06,10,10,09,0.20
2011,06,10,10,10,0.50
2011,06,10,10,11,3.30
2011,06,10,10,12,1.80
2011,06,10,10,13,3.00
2011,06,10,10,14,5.60
2011,06,10,10,15,1.80
2011,06,10,10,16,0.20
2011,06,10,10,17,0.10
2011,06,10,10,18,0.60
2011,06,10,10,19,1.50
2011,06,10,10,20,0.40
2011,06,10,10,21,0.80
2011,06,10,10,22,1.70
2011,06,10,10,23,0.40
2011,06,10,10,24,0.30
2011,06,10,10,25,0.20
2011,06,10,10,26,0.10
2011,06,10,10,27,2.70
2011,06,10,10,28,1.90
2011,06,10,10,29,1.30
2011,06,10,10,30,2.00
2011,06,10,10,31,0.20
2011,06,10,10,32,0.00
2011,06,10,10,33,0.30
2011,06,10,10,34,0.40
2011,06,10,10,35,1.50
2011,06,10,10,36,1.90
2011,06,10,10,37,0.30
2011,06,10,10,38,0.80
2011,06,10,10,39,1.80
2011,06,10,10,40,0.60
2011,06,10,10,41,0.90
2011,06,10,10,42,0.70
2011,06,10,10,43,2.70
2011,06,10,10,44,2.00
2011,06,10,10,45,6.10
2011,06,10,10,46,5.40
2011,06,10,10,47,7.60
2011,06,10,10,48,5.20
2011,06,10,10,49,2.50
2011,06,10,10,50,1.40
2011,06,10,10,51,0.80
2011,06,10,10,52,2.70
2011,06,10,10,53,3.30
2011,06,10,10,54,1.00
2011,06,10,10,55,1.40
2011,06,10,10,56,2.70
2011,06,10,10,57,1.70
2011,06,10,10,58,0.10
2011,06,10,10,59,2.70
2011,06,10,11,00,1.00
2011,06,10,11,01,0.60
2011,06,10,11,02,0.90
2011,06,10,11,03,0.80
2011,06,10,11,04,2.00
2011,06,10,11,05,1.50
2011,06,10,11,06,3.20
2011,06,10,11,07,2.40
2011,06,10,11,08,2.40
2011,06,10,11,09,2.70
2011,06,10,11,10,4.80
2011,06,10,11,11,3.30
2011,06,10,11,12,2.20
2011,06,10,11,13,4.80
2011,06,10,11,14,3.80
2011,06,10,11,15,6.40
2011,06,10,11,16,6.40
2011,06,10,11,17,6.90
2011,06,10,11,18,4.10
2011,06,10,11,19,3.80
2011,06,10,11,20,1.60
2011,06,10,11,21,1.20
2011,06,10,11,22,4.70
2011,06,10,11,23,5.10
2011,06,10,11,24,2.60
2011,06,10,11,25,3.00
2011,06,10,11,26,1.90
2011,06,10,11,27,2.80
2011,06,10,11,28,4.70
2011,06,10,11,29,2.40
2011,06,10,11,30,2.70
2011,06,10,11,31,3.80
2011,06,10,11,32,3.60
2011,06,10,11,33,3.10
2011,06,10,11,34,7.20
2011,06,10,11,35,4.90
2011,06,10,11,36,3.80
2011,06,10,11,37,2.60
2011,06,10,11,38,1.70
2011,06,10,11,39,1.90
2011,06,10,11,40,1.90
2011,06,10,11,41,2.90
2011,06,10,11,42,1.50
2011,06,10,11,43,2.30
2011,06,10,11,44,1.50
2011,06,10,11,45,2.00
2011,06,10,11,46,1.90
2011,06,10,11,47,4.90
2011,06,10,11,48,7.20
2011,06,10,11,49,7.70
2011,06,10,11,50,6.30
2011,06,10,11,51,3.50
2011,06,10,11,52,4.30
2011,06,10,11,53,3.10
2011,06,10,11,54,5.10
2011,06,10,11,55,5.10
2011,06,10,11,56,5.00
2011,06,10,11,57,4.30
2011,06,10,11,58,2.40
2011,06,10,11,59,2.60
2011,06,10,12,00,6.30
2011,06,10,12,01,5.20
2011,06,10,12,02,3.20
2011,06,10,12,03,3.10
2011,06,10,12,04,3.10
2011,06,10,12,05,4.80
2011,06,10,12,06,0.90
2011,06,10,12,07,2.20
2011,06,10,12,08,1.80
2011,06,10,12,09,2.30
2011,06,10,12,10,3.20
2011,06,10,12,11,2.90
2011,06,10,12,12,2.70
2011,06,10,12,13,0.80
2011,06,10,12,14,2.70
2011,06,10,12,15,2.40
2011,06,10,12,16,3.60
2011,06,10,12,17,3.70
2011,06,10,12,18,2.00
2011,06,10,12,19,1.60
2011,06,10,12,20,1.50
2011,06,10,12,21,1.60
2011,06,10,12,22,2.80
2011,06,10,12,23,2.70
2011,06,10,12,24,3.00
2011,06,10,12,25,2.30
2011,06,10,12,26,0.60
2011,06,10,12,27,3.70
2011,06,10,12,28,3.50
2011,06,10,12,29,3.00
2011,06,10,12,30,5.10
2011,06,10,12,31,3.00
2011,06,10,12,32,10.70
2011,06,10,12,33,8.60
2011,06,10,12,34,10.00
2011,06,10,12,35,7.50
2011,06,10,12,36,4.70
2011,06,10,12,37,4.30
2011,06,10,12,38,6.10
2011,06,10,12,39,3.90
2011,06,10,12,40,6.10
2011,06,10,12,41,3.90
2011,06,10,12,42,4.50
2011,06,10,12,43,4.40
2011,06,10,12,44,7.70
2011,06,10,12,45,7.20
2011,06,10,12,46,4.70
2011,06,10,12,47,5.90
2011,06,10,12,48,11.80
2011,06,10,12,49,7.20
2011,06,10,12,50,4.20
2011,06,10,12,51,5.20
2011,06,10,12,52,4.70
2011,06,10,12,53,4.70
2011,06,10,12,54,7.10
2011,06,10,12,55,6.90
2011,06,10,12,56,6.30
2011,06,10,12,57,6.50
2011,06,10,12,58,3.90
2011,06,10,12,59,9.80
2011,06,10,13,00,12.50
2011,06,10,13,01,6.80
2011,06,10,13,02,4.90
2011,06,10,13,03,3.80
2011,06,10,13,04,8.00
2011,06,10,13,05,6.40
2011,06,10,13,06,4.60
2011,06,10,13,07,4.00
2011,06,10,13,08,6.00
2011,06,10,13,09,6.80
2011,06,10,13,10,6.20
2011,06,10,13,11,5.40
2011,06,10,13,12,7.70
2011,06,10,13,13,6.70
2011,06,10,13,14,3.90
2011,06,10,13,15,7.00
2011,06,10,13,16,4.50
2011,06,10,13,17,6.40
2011,06,10,13,18,4.30
2011,06,10,13,19,2.10
2011,06,10,13,20,7.10
2011,06,10,13,21,3.90
2011,06,10,13,22,5.10
2011,06,10,13,23,6.50
2011,06,10,13,24,5.20
2011,06,10,13,25,5.40
2011,06,10,13,26,5.90
2011,06,10,13,27,7.20
2011,06,10,13,28,6.50
2011,06,10,13,29,7.10
2011,06,10,13,30,5.70
2011,06,10,13,31,3.70
2011,06,10,13,32,6.80
2011,06,10,13,33,6.20
2011,06,10,13,34,5.40
2011,06,10,13,35,7.90
2011,06,10,13,36,6.20
2011,06,10,13,37,4.20
2011,06,10,13,38,6.20
2011,06,10,13,39,5.80
2011,06,10,13,40,4.80
2011,06,10,13,41,6.20
2011,06,10,13,42,8.50
2011,06,10,13,43,6.00
2011,06,10,13,44,9.30
2011,06,10,13,45,8.90
2011,06,10,13,46,6.50
2011,06,10,13,47,4.20
2011,06,10,13,48,5.90
2011,06,10,13,49,3.50
2011,06,10,13,50,6.60
2011,06,10,13,51,3.90
2011,06,10,13,52,6.20
2011,06,10,13,53,3.10
2011,06,10,13,54,6.80
2011,06,10,13,55,8.90
2011,06,10,13,56,5.20
2011,06,10,13,57,4.30
2011,06,10,13,58,5.00
2011,06,10,13,59,3.40
2011,06,10,14,00,1.20
2011,06,10,14,01,4.60
2011,06,10,14,02,2.40
2011,06,10,14,03,7.20
2011,06,10,14,04,3.40
2011,06,10,14,05,3.90
2011,06,10,14,06,3.10
2011,06,10,14,07,2.70
2011,06,10,14,08,4.50
2011,06,10,14,09,5.30
2011,06,10,14,10,2.60
2011,06,10,14,11,0.80
2011,06,10,14,12,0.20
2011,06,10,14,13,0.20
2011,06,10,14,14,1.40
2011,06,10,14,15,1.10
2011,06,10,14,16,1.70
2011,06,10,14,17,7.60
2011,06,10,14,18,10.60
2011,06,10,14,19,7.90
2011,06,10,14,20,8.80
2011,06,10,14,21,8.50
2011,06,10,14,22,11.70
2011,06,10,14,23,15.80
2011,06,10,14,24,7.30
2011,06,10,14,25,6.30
2011,06,10,14,26,7.00
2011,06,10,14,27,2.70
2011,06,10,14,28,1.20
2011,06,10,14,29,3.60
2011,06,10,14,30,7.60
2011,06,10,14,31,8.40
2011,06,10,14,32,6.30
2011,06,10,14,33,9.80
2011,06,10,14,34,13.70
2011,06,10,14,35,13.30
2011,06,10,14,36,13.50
2011,06,10,14,37,15.30
2011,06,10,14,38,6.60
2011,06,10,14,39,12.30
2011,06,10,14,40,8.10
2011,06,10,14,41,5.40
2011,06,10,14,42,4.60
2011,06,10,14,43,11.00
2011,06,10,14,44,15.00
2011,06,10,14,45,8.80
2011,06,10,14,46,11.30
2011,06,10,14,47,10.30
2011,06,10,14,48,5.50
2011,06,10,14,49,6.10
2011,06,10,14,50,13.50
2011,06,10,14,51,13.30
2011,06,10,14,52,11.80
2011,06,10,14,53,8.00
2011,06,10,14,54,10.10
2011,06,10,14,55,9.70
2011,06,10,14,56,6.80
2011,06,10,14,57,15.40
2011,06,10,14,58,10.10
2011,06,10,14,59,7.50
2011,06,10,15,00,8.10
2011,06,10,15,01,6.80
2011,06,10,15,02,11.30
2011,06,10,15,03,7.80
2011,06,10,15,04,17.10
2011,06,10,15,05,11.20
2011,06,10,15,06,13.40
2011,06,10,15,07,12.40
2011,06,10,15,08,11.50
2011,06,10,15,09,17.90
2011,06,10,15,10,15.90
2011,06,10,15,11,8.90
2011,06,10,15,12,12.20
2011,06,10,15,13,8.30
2011,06,10,15,14,12.30
2011,06,10,15,15,17.80
2011,06,10,15,16,26.60
2011,06,10,15,17,12.60
2011,06,10,15,18,14.30
2011,06,10,15,19,12.80
2011,06,10,15,20,7.00
2011,06,10,15,21,9.30
2011,06,10,15,22,5.80
2011,06,10,15,23,10.30
2011,06,10,15,24,6.80
2011,06,10,15,25,9.10
2011,06,10,15,26,10.20
2011,06,10,15,27,12.60
2011,06,10,15,28,12.40
2011,06,10,15,29,7.30
2011,06,10,15,30,7.90
2011,06,10,15,31,8.50
2011,06,10,15,32,3.60
2011,06,10,15,33,5.20
2011,06,10,15,34,4.60
2011,06,10,15,35,4.70
2011,06,10,15,36,6.10
2011,06,10,15,37,6.50
2011,06,10,15,38,6.70
2011,06,10,15,39,8.60
2011,06,10,15,40,11.00
2011,06,10,15,41,16.40
2011,06,10,15,42,10.50
2011,06,10,15,43,5.80
2011,06,10,15,44,10.10
2011,06,10,15,45,12.50
2011,06,10,15,46,7.20
2011,06,10,15,47,16.60
2011,06,10,15,48,10.50
2011,06,10,15,49,10.80
2011,06,10,15,50,8.80
2011,06,10,15,51,5.30
2011,06,10,15,52,6.50
2011,06,10,15,53,13.40
2011,06,10,15,54,11.90
2011,06,10,15,55,10.50
2011,06,10,15,56,10.10
2011,06,10,15,57,7.60
2011,06,10,15,58,1.40
2011,06,10,15,59,4.50
2011,06,10,16,00,9.50
2011,06,10,16,01,6.70
2011,06,10,16,02,10.40
2011,06,10,16,03,10.80
2011,06,10,16,04,8.50
2011,06,10,16,05,8.30
2011,06,10,16,06,5.70
2011,06,10,16,07,15.10
2011,06,10,16,08,7.50
2011,06,10,16,09,10.60
2011,06,10,16,10,10.20
2011,06,10,16,11,15.80
2011,06,10,16,12,10.60
2011,06,10,16,13,15.20
2011,06,10,16,14,9.00
2011,06,10,16,15,8.00
2011,06,10,16,16,8.10
2011,06,10,16,17,5.10
2011,06,10,16,18,6.60
2011,06,10,16,19,4.20
2011,06,10,16,20,8.10
2011,06,10,16,21,7.80
2011,06,10,16,22,6.40
2011,06,10,16,23,6.00
2011,06,10,16,24,5.90
2011,06,10,16,25,12.10
2011,06,10,16,26,17.30
2011,06,10,16,27,7.60
2011,06,10,16,28,4.70
2011,06,10,16,29,3.70
2011,06,10,16,30,2.70
2011,06,10,16,31,5.90
2011,06,10,16,32,8.00
2011,06,10,16,33,6.00
2011,06,10,16,34,4.10
2011,06,10,16,35,4.30
2011,06,10,16,36,8.90
2011,06,10,16,37,10.20
2011,06,10,16,38,10.30
2011,06,10,16,39,10.70
2011,06,10,16,40,14.70
2011,06,10,16,41,14.80
2011,06,10,16,42,10.20
2011,06,10,16,43,13.90
2011,06,10,16,44,14.20
2011,06,10,16,45,15.00
2011,06,10,16,46,12.00
2011,06,10,16,47,9.70
2011,06,10,16,48,16.40
2011,06,10,16,49,8.90
2011,06,10,16,50,3.50
2011,06,10,16,51,5.50
2011,06,10,16,52,6.80
2011,06,10,16,53,9.30
2011,06,10,16,54,6.00
2011,06,10,16,55,8.90
2011,06,10,16,56,2.80
2011,06,10,16,57,5.90
2011,06,10,16,58,8.00
2011,06,10,16,59,4.20
2011,06,10,17,00,5.50
2011,06,10,17,01,4.20
2011,06,10,17,02,10.50
2011,06,10,17,03,11.00
2011,06,10,17,04,7.50
2011,06,10,17,05,6.00
2011,06,10,17,06,15.40
2011,06,10,17,07,11.20
2011,06,10,17,08,9.70
2011,06,10,17,09,9.00
2011,06,10,17,10,10.80
2011,06,10,17,11,4.20
2011,06,10,17,12,5.50
2011,06,10,17,13,5.00
2011,06,10,17,14,6.40
2011,06,10,17,15,4.70
2011,06,10,17,16,5.20
2011,06,10,17,17,8.30
2011,06,10,17,18,9.70
2011,06,10,17,19,5.70
2011,06,10,17,20,6.80
2011,06,10,17,21,7.60
2011,06,10,17,22,7.20
2011,06,10,17,23,6.40
2011,06,10,17,24,5.50
2011,06,10,17,25,14.60
2011,06,10,17,26,10.10
2011,06,10,17,27,10.50
2011,06,10,17,28,9.90
2011,06,10,17,29,12.60
2011,06,10,17,30,6.80
2011,06,10,17,31,13.60
2011,06,10,17,32,17.10
2011,06,10,17,33,14.60
2011,06,10,17,34,12.90
2011,06,10,17,35,13.80
2011,06,10,17,36,9.90
2011,06,10,17,37,9.30
2011,06,10,17,38,7.40
2011,06,10,17,39,11.80
2011,06,10,17,40,8.40
2011,06,10,17,41,3.50
2011,06,10,17,42,5.40
2011,06,10,17,43,9.10
2011,06,10,17,44,5.30
2011,06,10,17,45,7.20
2011,06,10,17,46,9.80
2011,06,10,17,47,6.20
2011,06,10,17,48,7.20
2011,06,10,17,49,5.10
2011,06,10,17,50,5.60
2011,06,10,17,51,6.80
2011,06,10,17,52,4.10
2011,06,10,17,53,0.40
2011,06,10,17,54,1.10
2011,06,10,17,55,0.10
2011,06,10,17,56,1.40
2011,06,10,17,57,0.60
2011,06,10,17,58,0.60
2011,06,10,17,59,0.00
2011,06,10,18,00,1.00
2011,06,10,18,01,0.50
2011,06,10,18,02,2.90
2011,06,10,18,03,7.00
2011,06,10,18,04,4.70
2011,06,10,18,05,4.40
2011,06,10,18,06,4.50